Regional Weather Roundup
Issued by NWS

Home | Current Version | Previous Version | Graphics & Text | Print | Product List | Glossary On
Versions: 1 2 3 4 5 6 7 8 9 10 11 12 13 14 15 16 17 18 19 20 21 22 23 24 25 26 27 28 29 30 31 32 33 34 35 36 37 38 39 40 41 42 43 44 45 46 47 48 49 50
000
ASUS43 KLMK 221502
RWRKY
KENTUCKY REGIONAL WEATHER ROUNDUP
NATIONAL WEATHER SERVICE LOUISVILLE KY
1100 AM EDT FRI SEP 22 2017

NOTE "FAIR" INDICATES FEW OR NO CLOUDS BELOW 12,000 FEET
WITH NO SIGNIFICANT WEATHER AND/OR OBSTRUCTIONS TO VISIBILITY.

KYZ001>023-026-027-061>063-070>075-221600-
WESTERN AND SOUTH CENTRAL KENTUCKY

CITY           SKY/WX    TMP DP  RH WIND       PRES   REMARKS
PADUCAH        SUNNY     84  72  67 CALM      30.07S
HENDERSON      SUNNY     84  72  67 NE3       30.09S
OWENSBORO      SUNNY     85  70  60 CALM      30.10R
HOPKINSVILLE   NOT AVBL
BOWLING GREEN  SUNNY     81  72  74 VRB3      30.10S
GLASGOW        SUNNY     80  69  70 CALM      30.11S
$$

KYZ024-025-028>034-038-045-046-053-221600-
NORTH CENTRAL KENTUCKY

CITY           SKY/WX    TMP DP  RH WIND       PRES   REMARKS
LOUISVILLE/SDF MOSUNNY   82  69  64 SE5       30.11S
LOUISVILLE/LOU SUNNY     82  71  69 SE3       30.12S
FORT KNOX      NOT AVBL
$$

KYZ035>037-039>044-047>052-055>060-089>105-221600-
NORTHEAST KENTUCKY

CITY           SKY/WX    TMP DP  RH WIND       PRES   REMARKS
LEXINGTON      SUNNY     82  70  66 NE5       30.14S
COVINGTON      PTSUNNY   81  70  69 CALM      30.14R
FRANKFORT      SUNNY     82  67  60 CALM      30.12S
$$

KYZ054-064>069-076>088-106>120-221600-
SOUTHEAST KENTUCKY

CITY           SKY/WX    TMP DP  RH WIND       PRES   REMARKS
JACKSON        SUNNY     77  68  73 CALM      30.15S
LONDON         SUNNY     77  67  71 VRB3      30.15R
SOMERSET       NOT AVBL
MIDDLESBORO    MOSUNNY   68  66  94 CALM      30.15F
MONTICELLO     SUNNY     75  70  84 VRB7      30.15S
$$





USA.gov is the U.S. government's official web portal to all federal, state and local government web resources and services.